Weather History for New Richmond, WI

Change the Weather History Date:

Monday, March 26, 2012

  Actual Average (KMSP) Record (KMSP)
Temperature  
Mean Temperature 38 °F 37 °F  
Max Temperature 42 °F 47 °F 81 °F (2007)
Min Temperature 33 °F 28 °F -10 °F (1996)
Degree Days  
Heating Degree Days 28 28  
Month to date heating degree days 868  
Since 1 July heating degree days 6658  
Cooling Degree Days 0 0  
Month to date cooling degree days 0  
Year to date cooling degree days 0  
Moisture  
Dew Point 24 °F    
Average Humidity 61    
Maximum Humidity 81    
Minimum Humidity 49    
Precipitation  
Precipitation 0.02 in 0.07 in 1.02 in (1921)
Month to date precipitation 1.54  
Year to date precipitation 3.21  
Snow  
Snow 0.00 in 0.20 in 8.50 in (1936)
Month to date snowfall 9.3  
Since 1 July snowfall 51.0  
Snow Depth -    
Sea Level Pressure  
Sea Level Pressure 30.27 in    
Wind  
Wind Speed 13 mph (ESE)    
Max Wind Speed 18 mph    
Max Gust Speed 28 mph    
Visibility 10 miles    
Events Rain    
T = Trace of Precipitation, MM = Missing Value Source: NWS Daily Summary

Daily Weather History Graph

Daily Weather History Graph

Search for Another Location

Airport:

Trip Planner

Search our weather history database for the weather conditions in past years. The results will help you decide how hot, cold, wet, or windy it might be!

Date:

Astronomy

Mar. 26, 2012 Rise Set
Actual Time 7:00 AM CDT 7:31 PM CDT
Civil Twilight 6:31 AM CDT 8:00 PM CDT
Nautical Twilight 5:56 AM CDT 8:35 PM CDT
Astronomical Twilight 5:20 AM CDT 9:11 PM CDT
Moon 8:38 AM CDT (3/26) 11:55 PM CDT (3/26)
Length of Visible Light 13h 29m
Length of Day
12h 30m
Waxing Crescent, 15% of the Moon is Illuminated
Mar 26
Waxing Crescent
Mar 30
First Quarter
Apr 6
Full
Apr 13
Last Quarter
Apr 21
New

Hourly Weather History & Observations

Time (CDT) Temp. Windchill Dew Point Humidity Pressure Visibility Wind Dir Wind Speed Gust Speed Precip Events Conditions
12:15 AM 42.8 °F 36.2 °F 26.6 °F 53% 30.27 in 10.0 mi ENE 12.7 mph - N/A   Overcast
12:35 AM 41.0 °F 33.9 °F 26.6 °F 57% 30.27 in 10.0 mi ENE 12.7 mph 18.4 mph N/A   Overcast
12:55 AM 41.0 °F 34.3 °F 26.6 °F 57% 30.27 in 10.0 mi ENE 11.5 mph - N/A   Overcast
1:15 AM 39.2 °F 30.8 °F 24.8 °F 56% 30.28 in 10.0 mi ENE 15.0 mph 21.9 mph N/A   Overcast
1:35 AM 37.4 °F 29.3 °F 23.0 °F 56% 30.28 in 10.0 mi ENE 12.7 mph 16.1 mph N/A   Overcast
1:55 AM 37.4 °F 30.3 °F 23.0 °F 56% 30.28 in 10.0 mi ENE 10.4 mph 20.7 mph N/A   Overcast
2:15 AM 37.4 °F 30.3 °F 24.8 °F 60% 30.29 in 10.0 mi ENE 10.4 mph - N/A   Overcast
2:35 AM 37.4 °F 28.5 °F 23.0 °F 56% 30.29 in 10.0 mi ENE 15.0 mph - N/A   Overcast
2:55 AM 35.6 °F 28.6 °F 21.2 °F 56% 30.30 in 10.0 mi East 9.2 mph 17.3 mph N/A   Overcast
3:15 AM 35.6 °F 27.1 °F 23.0 °F 60% 30.29 in 10.0 mi ENE 12.7 mph 19.6 mph N/A   Overcast
3:35 AM 35.6 °F 26.2 °F 23.0 °F 60% 30.29 in 10.0 mi ENE 15.0 mph - N/A   Overcast
3:55 AM 35.6 °F 26.6 °F 23.0 °F 60% 30.29 in 10.0 mi East 13.8 mph 19.6 mph N/A   Overcast
4:15 AM 35.6 °F 28.0 °F 23.0 °F 60% 30.30 in 10.0 mi East 10.4 mph 17.3 mph N/A   Overcast
4:35 AM 35.6 °F 28.6 °F 23.0 °F 60% 30.30 in 10.0 mi East 9.2 mph 17.3 mph N/A   Overcast
4:55 AM 33.8 °F 25.3 °F 23.0 °F 65% 30.31 in 10.0 mi East 11.5 mph - N/A   Overcast
5:15 AM 33.8 °F 25.8 °F 23.0 °F 65% 30.31 in 10.0 mi East 10.4 mph - N/A   Overcast
5:35 AM 33.8 °F 24.8 °F 23.0 °F 65% 30.31 in 10.0 mi East 12.7 mph 17.3 mph N/A   Overcast
5:55 AM 33.8 °F 24.3 °F 23.0 °F 65% 30.30 in 10.0 mi East 13.8 mph 18.4 mph N/A   Overcast
6:15 AM 33.8 °F 24.8 °F 23.0 °F 65% 30.30 in 10.0 mi East 12.7 mph 19.6 mph N/A   Overcast
6:35 AM 33.8 °F 24.8 °F 23.0 °F 65% 30.31 in 10.0 mi East 12.7 mph 18.4 mph N/A   Overcast
6:55 AM 33.8 °F 24.8 °F 23.0 °F 65% 30.30 in 10.0 mi East 12.7 mph 20.7 mph N/A Rain Light Rain
7:15 AM 33.8 °F 23.2 °F 23.0 °F 65% 30.31 in 10.0 mi East 17.3 mph 23.0 mph N/A Rain Light Rain
7:55 AM 33.8 °F 26.4 °F 24.8 °F 70% 30.33 in 10.0 mi ESE 9.2 mph - N/A   Light Drizzle
8:15 AM 33.8 °F 25.8 °F 23.0 °F 65% 30.33 in 10.0 mi ESE 10.4 mph 17.3 mph N/A   Overcast
8:35 AM 33.8 °F 25.8 °F 23.0 °F 65% 30.34 in 10.0 mi ESE 10.4 mph 16.1 mph N/A   Overcast
8:55 AM 33.8 °F 25.8 °F 23.0 °F 65% 30.34 in 10.0 mi SE 10.4 mph - N/A   Overcast
9:15 AM 33.8 °F 25.8 °F 26.6 °F 75% 30.32 in 10.0 mi ESE 10.4 mph 18.4 mph N/A Rain Light Rain
9:35 AM 33.8 °F 23.9 °F 26.6 °F 75% 30.32 in 10.0 mi ESE 15.0 mph 20.7 mph N/A   Overcast
9:55 AM 35.6 °F 27.5 °F 24.8 °F 65% 30.33 in 10.0 mi ESE 11.5 mph - N/A   Overcast
10:15 AM 35.6 °F 27.1 °F 24.8 °F 65% 30.33 in 10.0 mi ESE 12.7 mph 17.3 mph N/A   Overcast
10:35 AM 33.8 °F 25.3 °F 26.6 °F 75% 30.32 in 5.0 mi ESE 11.5 mph 19.6 mph 0.01 in Rain Light Rain
10:55 AM 33.8 °F 25.8 °F 28.4 °F 81% 30.32 in 10.0 mi ESE 10.4 mph 16.1 mph 0.02 in Rain Light Rain
11:15 AM 33.8 °F 24.3 °F 28.4 °F 81% 30.32 in 10.0 mi ESE 13.8 mph - N/A Rain Light Rain
11:35 AM 33.8 °F 25.8 °F 28.4 °F 81% 30.32 in 10.0 mi ESE 10.4 mph 16.1 mph N/A   Overcast
11:55 AM 35.6 °F 27.1 °F 28.4 °F 75% 30.31 in 10.0 mi ESE 12.7 mph 19.6 mph N/A   Overcast
12:15 PM 35.6 °F 28.0 °F 26.6 °F 70% 30.30 in 10.0 mi ESE 10.4 mph 20.7 mph N/A   Overcast
12:35 PM 35.6 °F 28.6 °F 26.6 °F 70% 30.30 in 10.0 mi ESE 9.2 mph 20.7 mph N/A   Overcast
12:55 PM 35.6 °F 27.1 °F 24.8 °F 65% 30.30 in 10.0 mi ESE 12.7 mph 20.7 mph N/A   Overcast
1:15 PM 35.6 °F 26.2 °F 24.8 °F 65% 30.29 in 10.0 mi ESE 15.0 mph 19.6 mph N/A   Overcast
1:35 PM 35.6 °F 27.1 °F 24.8 °F 65% 30.28 in 10.0 mi ESE 12.7 mph 20.7 mph N/A   Overcast
1:55 PM 37.4 °F 28.5 °F 23.0 °F 56% 30.27 in 10.0 mi ESE 15.0 mph 20.7 mph N/A   Overcast
2:15 PM 37.4 °F 28.2 °F 23.0 °F 56% 30.26 in 10.0 mi ESE 16.1 mph 19.6 mph N/A   Overcast
2:35 PM 37.4 °F 28.2 °F 23.0 °F 56% 30.24 in 10.0 mi ESE 16.1 mph 20.7 mph N/A   Overcast
2:55 PM 37.4 °F 28.5 °F 23.0 °F 56% 30.24 in 10.0 mi SE 15.0 mph 24.2 mph N/A   Overcast
3:15 PM 37.4 °F 28.5 °F 23.0 °F 56% 30.22 in 10.0 mi ESE 15.0 mph 21.9 mph N/A   Overcast
3:35 PM 37.4 °F 28.2 °F 23.0 °F 56% 30.21 in 10.0 mi SE 16.1 mph 21.9 mph N/A   Overcast
3:55 PM 39.2 °F 30.8 °F 21.2 °F 49% 30.20 in 10.0 mi SE 15.0 mph 21.9 mph N/A   Overcast
4:15 PM 39.2 °F 31.6 °F 23.0 °F 52% 30.19 in 10.0 mi ESE 12.7 mph 21.9 mph N/A   Overcast
4:35 PM 39.2 °F 30.8 °F 23.0 °F 52% 30.18 in 10.0 mi SE 15.0 mph 21.9 mph N/A   Overcast
4:55 PM 39.2 °F 31.6 °F 23.0 °F 52% 30.18 in 10.0 mi SE 12.7 mph 21.9 mph N/A   Overcast
5:15 PM 39.2 °F 31.6 °F 23.0 °F 52% 30.16 in 10.0 mi SE 12.7 mph 18.4 mph N/A   Overcast
5:35 PM 39.2 °F 31.2 °F 23.0 °F 52% 30.15 in 10.0 mi ESE 13.8 mph 21.9 mph N/A   Overcast
5:55 PM 39.2 °F 31.2 °F 23.0 °F 52% 30.15 in 10.0 mi SE 13.8 mph 23.0 mph N/A   Overcast
6:15 PM 41.0 °F 33.1 °F 23.0 °F 49% 30.11 in 10.0 mi ESE 15.0 mph 25.3 mph N/A   Overcast
6:35 PM 41.0 °F 32.2 °F 24.8 °F 53% 30.09 in 10.0 mi ESE 18.4 mph 27.6 mph N/A   Overcast
6:55 PM 41.0 °F 32.5 °F 24.8 °F 53% 30.09 in 10.0 mi ESE 17.3 mph 23.0 mph N/A   Overcast
7:15 PM 41.0 °F 33.1 °F 24.8 °F 53% 30.07 in 10.0 mi ESE 15.0 mph 26.5 mph N/A   Overcast
7:35 PM 41.0 °F 33.9 °F 26.6 °F 57% 30.07 in 10.0 mi SE 12.7 mph 25.3 mph N/A   Overcast
7:55 PM 41.0 °F 33.9 °F 26.6 °F 57% 30.09 in 10.0 mi SE 12.7 mph 21.9 mph N/A   Overcast
8:15 PM 39.2 °F 31.2 °F 28.4 °F 65% 30.05 in 10.0 mi ESE 13.8 mph 25.3 mph N/A Rain Light Rain
8:35 PM 37.4 °F 28.5 °F 30.2 °F 75% 30.02 in 10.0 mi SE 15.0 mph 24.2 mph N/A   Mostly Cloudy
8:55 PM 37.4 °F 29.3 °F 30.2 °F 75% 30.03 in 10.0 mi SE 12.7 mph 21.9 mph N/A   Scattered Clouds
9:15 PM 39.2 °F 30.2 °F 28.4 °F 65% 30.03 in 10.0 mi SE 17.3 mph 21.9 mph N/A   Overcast
9:55 PM 41.0 °F 33.9 °F 26.6 °F 57% 30.04 in 10.0 mi SE 12.7 mph 20.7 mph N/A   Overcast
10:15 PM 41.0 °F 34.7 °F 26.6 °F 57% 30.04 in 10.0 mi SE 10.4 mph 20.7 mph N/A   Overcast
10:55 PM 41.0 °F 32.5 °F 23.0 °F 49% 30.00 in 10.0 mi SE 17.3 mph 21.9 mph N/A   Scattered Clouds
11:55 PM 41.0 °F 33.1 °F 23.0 °F 49% 29.97 in 10.0 mi SE 15.0 mph 21.9 mph N/A   Clear